Regional Weather Roundup
Issued by NWS

Home | Current Version | Previous Version | Graphics & Text | Print | Product List | Glossary On
Versions: 1 2 3 4 5 6 7 8 9 10 11 12 13 14 15 16 17 18 19 20 21 22 23 24 25 26 27 28 29 30 31 32 33 34 35 36 37 38 39 40 41 42 43 44 45 46 47 48 49 50
000
ASUS43 KDTX 271301
RWRMI
MICHIGAN HOURLY REGIONAL WEATHER ROUNDUP
NATIONAL WEATHER SERVICE DETROIT/PONTIAC MI
900 AM EDT WED JUL 27 2016

NOTE: "FAIR" INDICATES FEW OR NO CLOUDS BELOW 12,000 FEET WITH NO
SIGNIFICANT WEATHER AND/OR OBSTRUCTION TO VISIBILITY.

MIZ047>049-052>055-059>063-066>070-074>076-081>083-271400-
SOUTHEAST LOWER MICHIGAN

CITY           SKY/WX    TMP DP  RH WIND       PRES   REMARKS
ADRIAN         SUNNY     75  65  70 CALM      30.04F
ALMA           MOSUNNY   74  67  78 SW7       30.01F
ANN ARBOR      SUNNY     77  64  64 SW3       30.03S
BAD AXE        PTSUNNY   74  62  66 W6        30.00S
CARO           MOSUNNY   73  63  70 SW5       30.00S
DETROIT CITY     N/A     77  64  64 W3        30.02S
DETROIT        MOSUNNY   78  64  61 CALM      30.03S
FLINT          SUNNY     78  62  57 SW6       30.03R
GROSSE ILE     SUNNY     77  65  65 CALM      30.02R
HOWELL         SUNNY     73  64  73 W6        30.04S

CITY           SKY/WX    TMP DP  RH WIND       PRES   REMARKS
JACKSON        SUNNY     74  66  76 W5        30.05S
LAMBERTVILLE   SUNNY     76  66  70 CALM      30.04R
LANSING        MOSUNNY   74  60  61 SW6       30.04R
LAPEER         FAIR      75  61  62 W6        30.03R
MASON          SUNNY     73  64  72 W3        30.05S
MONROE         SUNNY     74  68  82 CALM      30.02S
MT. CLEMENS    SUNNY     79  64  59 SW3       30.00S
PONTIAC        MOSUNNY   76  63  64 W5        30.03R
PORT HURON     SUNNY     73  66  78 CALM      30.00F
TRI CITIES     MOSUNNY   75  64  68 W12       30.00S
MIDLAND        FAIR      71  62  74 CALM      30.00R
TROY           SUNNY     77  63  61 CALM      30.04S
SAGINAW HB     MOSUNNY   73  63  68 SW7       30.00R
$$
MIZ043>046-050>051-056>058-064>065-071>073-077>080-271400-
SOUTHWEST LOWER MICHIGAN

CITY           SKY/WX    TMP DP  RH WIND       PRES   REMARKS
BATTLE CREEK   SUNNY     72  63  73 CALM      30.05S
BENTON HARBOR  SUNNY     73  65  75 CALM      30.03S
BIG RAPIDS     SUNNY     75  70  84 SW3       30.00F
COLDWATER      SUNNY     72  68  86 CALM      30.05S
FREMONT        FAIR      73  73 100 CALM      30.00F
HOLLAND        SUNNY     74  69  85 S3        30.02F
GRAND RAPIDS   MOSUNNY   73  65  75 SW6       30.03S
IONIA          FAIR      73  61  68 SW3       30.02F
KALAMAZOO      SUNNY     75  64  68 CALM      30.04F
LUDINGTON        N/A    N/A N/A N/A MISG        N/A
MARSHALL       SUNNY     74  65  74 CALM      30.04F
MOUNT PLEASANT SUNNY     76  65  67 SW8       30.00S
MUSKEGON       MOSUNNY   78  71  79 SW9       30.00F
SOUTH HAVEN    SUNNY     72  66  82 CALM      30.03S
$$
MIZ016>042-271400-
NORTHERN LOWER MICHIGAN

CITY           SKY/WX    TMP DP  RH WIND       PRES   REMARKS
ALPENA         SUNNY     76  64  66 W6        29.97R
BEAVER ISLAND  MOSUNNY   71  66  82 CALM      29.96S
BELLAIRE       CLOUDY    74  67  79 S3        29.98S
CADILLAC       SUNNY     73  65  76 SW5       30.01R
CHARLEVOIX     CLOUDY    73  65  75 CALM      30.00S
FRANKFORT      MOSUNNY   75  67  77 CALM      29.98S
GAYLORD        PTSUNNY   74  63  68 W5        30.00R
GRAYLING       MOSUNNY   74  64  73 W5        30.01S
HARBOR SPRINGS CLOUDY    71  66  85 SW3       29.96S
HOUGHTON LAKE  SUNNY     74  64  71 NW6       30.01R
MANISTEE       SUNNY     75  68  78 CALM      29.97F
OSCODA         MOSUNNY   75  62  65 W6        29.97R
PELLSTON       MOSUNNY   72  65  78 CALM      29.96S
ROGERS CITY    CLOUDY    72  66  82 NW6       29.97S
TRAVERSE CITY  MOSUNNY   76  67  73 S3        29.96F
$$
MIZ007>008-015-271400-
EASTERN UPPER MICHIGAN

CITY           SKY/WX    TMP DP  RH WIND       PRES   REMARKS
KINROSS        CLOUDY    66  65  96 NW9       29.96S
MACKINAC ISLAN CLOUDY    70  67  91 CALM      29.95F
S. S. MARIE    CLOUDY    68  67  96 W5        29.95R
$$
MIZ004>006-011>014-085-271400-
CENTRAL UPPER MICHIGAN

CITY           SKY/WX    TMP DP  RH WIND       PRES   REMARKS
MANISTIQUE     MOSUNNY   69  67  96 CALM      29.95S
ESCANABA       PTSUNNY   72  64  78 NW5       29.95R
MENOMINEE      CLOUDY   N/A N/A N/A VRB3      29.99R
SAWYER-GWINN   SUNNY     68  61  77 CALM      30.00R
$$
MIZ001>003-009>011-084-271400-
WESTERN UPPER MICHIGAN

CITY           SKY/WX    TMP DP  RH WIND       PRES   REMARKS
IRON MOUNTAIN  PTSUNNY   66  60  81 W3        30.00R
HOUGHTON       CLOUDY    66  56  70 NE9       29.99R
IRONWOOD       CLOUDY    70  70 100 W6        30.00R
$$

ABBREVIATIONS USED IN REMARKS
   TC - TEMPERATURE IN CELSIUS
  WCI - WIND CHILL INDEX
   HX - HEAT INDEX
  VSB - VISIBILITY





USA.gov is the U.S. government's official web portal to all federal, state and local government web resources and services.